Location: Newark
(45.4422°N, 16.2769°E)
Time: 19:06:47
(UTC+00:00)

Courier 1B Rocket - Pass Details

Date: 13 December 2019
Orbit: 920 x 1202 km, 28.2° (Epoch: 28 January)

Event Time Altitude Azimuth Distance (km) Brightness Sun altitude
Rises 03:21:25 0° 208° (SSW) 3,943 - -31.3°
Exits shadow 03:24:37 - 192° (SSW) 3,240 7.6 -30.8°
Reaches altitude 10° 03:27:02 10° 175° (S) 2,906 7.5 -30.3°
Maximum altitude 03:28:39 11° 161° (SSE) 2,819 7.6 -30.1°
Drops below altitude 10° 03:30:15 10° 148° (SSE) 2,857 7.8 -29.8°
Sets 03:35:33 0° 114° (ESE) 3,730 9.1 -28.9°
